ARIANE 2 DEB, 29023

Orbit data source: Space-Track

ARIANE 2 DEB, 29023 is space debris in HEO originally from a launch on Fri, 27 Jan 1989 UTC launched from the French Guiana (FRGUI). Debris objects in space refer to the collection of defunct objects orbiting the Earth. Examples of debris include non-operational satellites, rocket bodies, and fragments generated from explosions, collisions, or faulty payload assembly.

Loading next visibility...
Identifier
29023, 1989-006AP
Orbit
HEO
Last TLE update
22 hours ago
Origin
Manufacturer
EADS/LV
Mission
Spacecraft
Bus & Motor
Unknown
Mass
Unknown
Launch date (UTC)
1989-01-27 (36 years ago)
Launch vehicle
Unknown
Launch site
French Guiana (FRGUI)
Object type
Payload
Rocket body
Debris
Shape & HBR
Unknown
Radar Cross Section
Medium (>0.1 m² and <1 m²)

Expand to show TLE details & history

TLE from 22 hours ago
0 ARIANE 2 DEB
1 29023U 89006AP  25181.46453608  .00000039  00000-0  54291-2 0  9997
2 29023   7.8572 109.6185 7095367  24.8285  68.9381  2.25214000 92173
Epoch: 2025-06-30T11:08Z
TLE epoch observation values (Epoch: 2025-06-30T11:08:55.917Z)
Latitude
1.17151°
Longitude
-164.96235°
Altitude
23,548.792 km
Speed
3.229 km/s
True Right ascension
18h 44m 10s
True Declination
1° 10' 11"
Sunlit
Object was in daylight at epoch
Visualization orbit readout
Latitude
-0.24086°
Longitude
-155.0284°
Altitude
28,460.936 km
Speed
2.582 km/s
Apparent Right ascension
19h 10m 32s
Apparent Declination
-7° 55' 04"
Sunlit
Object is in daylight
Visualization observer readout
Local Sidereal Time
20:48:33
Azimuth
210.993° SW
Elevation
37.074°
Doppler factor
1
Orbital elements
Apogee altitude
35,659.489 km
Perigee altitude
764.376 km
Semi-major axis
24,590.07 km
Eccentricity
0.70954
Inclination
7.8572°
RAAN
109.6185°
Arg. of periapsis
24.8285°
True anomaly
Unknown
Mean anomaly
68.9381°
Eccentric anomaly
Unknown
Mean motion
0.56286 °/min
Orbital period
639.59 mins
BSTAR
0.0054291
Loading maneuver chart data...
Loading SW <> Apogee altitude chart data...
Loading historical data...
Loading historical data...
Loading historical data...
Loading historical data...
Loading historical data...
Loading historical data...
Loading historical data...

ARIANE 2 DEB Visibility forecast

Observer location: undefined°, undefined°

Span
Click to sort rows by Start time (UTC) header in descending order
Start Az.
Max El. time (UTC)
Max El. Az.
Max El.
End time (UTC)
End Az.
366 mins2025-07-01 09:10:19.473Z210.98° SW2025-07-01 09:10:19.473Z210.98° SW31.074°2025-07-01 15:16:19.473Z237.923° WSW
305 mins2025-07-02 04:05:19.473Z221.423° SW2025-07-02 08:36:19.473Z170.437° S32.718°2025-07-02 09:10:19.473Z176.183° S
|